Preview of NWS' New Version of Forecast
This preview is not operational and should not be used for support decisions.

Regional Weather Roundup (RWR)

Issued by National Weather Service (NWS)

                            
000
ASUS46 KSEW 252010
RWRWA 

WASHINGTON REGIONAL WEATHER ROUNDUP
NATIONAL WEATHER SERVICE SEATTLE WA
100 PM PDT TUE JUN 25 2019

NOTE:"FAIR" INDICATES FEW OR NO CLOUDS BELOW 12,000 FEET WITH NO 
SIGNIFICANT WEATHER AND/OR OBSTRUCTIONS TO VISIBILITY.

WAZ507-509-555>559-252100-
SEATTLE, TACOMA, EVERETT, AND VICINITY
  
CITY           SKY/WX    TMP DP  RH WIND       PRES   REMARKS
EVERETT        PTSUNNY   66  43  43 CALM      29.89S                  
BOEING FIELD   PTSUNNY   68  45  43 VRB3      29.87F                  
RENTON         MOSUNNY   70  51  51 N7        29.86F                  
SEATAC AIRPORT PTSUNNY   70  46  42 W8        29.87F                  
JBLM-MCCHORD   PTSUNNY   70  53  53 S5        29.86F                  
PUYALLUP       FAIR      72  46  40 CALM      29.87F                  
BREMERTON      MOSUNNY   70  48  45 VRB7      29.87F                  
JBLM-FT LEWIS  NOT AVBL                                               
TACOMA NARROWS MOSUNNY   67  46  47 E6        29.87F                  
$$
 
WAZ001-503-506-510-514-515-252100-
NORTH INTERIOR
  
CITY           SKY/WX    TMP DP  RH WIND       PRES   REMARKS
BELLINGHAM     MOSUNNY   67  49  52 S9        29.87F                  
FRIDAY HARBOR  SUNNY     67  49  52 E6        29.88F                  
EASTSOUND      SUNNY     63  50  63 NW5       29.87F                  
PORT ANGELES   PTSUNNY   63  46  54 NE6       29.89F                  
EDIZ HOOK      FAIR      58  51  77 NE3       29.88F                  
PORT TOWNSEND  FAIR      66  48  52 E8        29.86F                  
NAS WHIDBEY    CLOUDY    67  49  52 NW6       29.91F                  
ARLINGTON      PTSUNNY   69  52  54 NW8       29.87F                  
BURLINGTON     SUNNY     75  50  41 VRB6G14   29.87F                  
$$
 
WAZ020-022-039-040-504-511-512-252100-
SOUTHWEST INTERIOR
  
CITY           SKY/WX    TMP DP  RH WIND       PRES   REMARKS
SHELTON        MOSUNNY   72  44  36 NE8       29.84F                  
OLYMPIA        MOSUNNY   71  44  37 CALM      29.86F                  
CHEHALIS       CLOUDY    70  48  46 W5        29.87S                  
KELSO          PTSUNNY   65  54  67 CALM      29.89F                  
VANCOUVER      CLOUDY    65  51  60 W8        29.88F                  
SCAPPOOSE, OR  CLOUDY    65  54  67 CALM      29.88F                  
PORTLAND, OR   PTSUNNY   66  49  54 NW14      29.88F                  
$$
 
WAZ021-516-517-252100-
WASHINGTON COAST
  
CITY           SKY/WX    TMP DP  RH WIND       PRES   REMARKS
FORKS          CLOUDY    64  47  53 SW9       29.89S                  
HOQUIAM        PTSUNNY   64  51  62 W13       29.90S                  
ASTORIA, OR    PTSUNNY   63  52  67 SW10      29.90S                  
$$
 
WAZ019-023-024-040-567>569-252100-
CASCADE MOUNTAINS AND COLUMBIA GORGE
  
CITY           SKY/WX    TMP DP  RH WIND       PRES   REMARKS
STAMPEDE PASS  PTSUNNY   57  38  48 MISG      29.89S HAZE             
TROUTDALE, OR  PTSUNNY   68  50  52 SW8       29.87F                  
HOOD RIVER, OR PTCLDY    72  45  37 W10G18    29.82F                  
THE DALLES, OR PTSUNNY   73  44  35 W10       29.79F                  
$$

WAZ026-027-041>044-520-521-252100-
EAST SLOPES
  
CITY           SKY/WX    TMP DP  RH WIND       PRES   REMARKS
OMAK           PTSUNNY   74  41  30 SE5       29.81F                  
WENATCHEE      MOSUNNY   71  40  32 SW13      29.80F                  
ELLENSBURG     PTSUNNY   76  33  21 SW6       29.81F                  
YAKIMA         MOSUNNY   74  35  24 VRB3      29.80F                  
SUNNYSIDE ARPT CLEAR     74  43  32 SW6       29.80                   
YAKIMA TC      FAIR      75  36  24 S5        29.79F                  
$$

WAZ028-034-035-252100-
COLUMBIA BASIN
  
CITY           SKY/WX    TMP DP  RH WIND       PRES   REMARKS
EPHRATA        MOSUNNY   73  41  31 VRB7G17   29.80F                  
MOSES LAKE     MOSUNNY   74  40  29 S12       29.82F                  
PASCO          SUNNY     78  37  22 VRB6      29.80F                  
RICHLAND ARPT  CLEAR     78  41  26 NE7       29.79F                  
HERMISTON, OR  SUNNY     77  34  21 W8        29.79F                  
$$

WAZ036>038-252100-
NORTHEAST WASHINGTON
  
CITY           SKY/WX    TMP DP  RH WIND       PRES   REMARKS
SPOKANE GEIGER PTSUNNY   70  38  31 VRB3      29.86F                  
SPOKANE FELTS  MOSUNNY   74  37  26 SE7       29.85F                  
FAIRCHILD AFB  MOSUNNY   70  36  29 S8        29.86F                  
COEURDALENE,ID MOSUNNY   71  38  29 SW7       29.87F                  
DEER PARK      MOSUNNY   69  35  28 S6        29.86F                  
$$

WAZ029>033-252100-
SOUTHEAST WASHINGTON
  
CITY           SKY/WX    TMP DP  RH WIND       PRES   REMARKS
PULLMAN        SUNNY     68  42  38 VRB3      29.88F                  
LEWISTON, ID   MOSUNNY   73  44  35 VRB5      29.84F                  
WALLA WALLA    SUNNY     75  36  24 SE5       29.82F                  
PENDLETON, OR  SUNNY     75  34  22 VRB7      29.81F                  
$$